Location: Chevoux
(46.3801°N, 4.9476°E)
Time: 16:55:25
(UTC+00:00)

Envisat - Pass Details

Date: 06 December 2021
Orbit: 764 x 766 km, 98.2° (Epoch: 16 January)

Event Time Altitude Azimuth Distance (km) Brightness Sun altitude
Rises 05:56:16 0° 3° (N) 3,245 6.1 -12.0°
Reaches altitude 10° 05:58:55 10° 351° (N) 2,313 5.2 -11.6°
Maximum altitude 06:03:01 25° 297° (WNW) 1,503 3.9 -10.9°
Drops below altitude 10° 06:07:07 10° 243° (WSW) 2,300 5.1 -10.3°
Sets 06:09:44 0° 231° (SW) 3,221 5.9 -9.8°
